Location: Unspecified
(48.8656°N, 0.0000°E)
Time: 00:55:13
(UTC+00:00)

Vanguard 1 Rocket - Pass Details

Date: 25 June 2019
Orbit: 651 x 4225 km, 34.3° (Epoch: 19 July)

Event Time Altitude Azimuth Distance (km) Brightness Sun altitude
Rises 18:46:14 0° 256° (WSW) 7,264 12.9 10.7°
Reaches altitude 10° 18:52:17 10° 250° (WSW) 5,661 12.2 9.7°
Maximum altitude 19:05:17 37° 191° (SSW) 2,577 9.7 7.8°
Drops below altitude 10° 19:12:36 10° 127° (SE) 3,188 9.6 6.7°
Sets 19:15:01 0° 118° (ESE) 3,854 9.9 6.4°
